Monument Pass, CO

12:25 AM MDT on October 14, 2019 (GMT -0600)
Monument Pass

Weather History for KMNH - September, 2019

Change the Weather History Date:

Monday, September 16, 2019

  Actual Average Record
Temperature  
Mean Temperature 65 °F -  
Max Temperature 79 °F - 82 °F (2018)
Min Temperature 51 °F - 33 °F (2004)
Degree Days  
Heating Degree Days 0    
Month to date heating degree days 34  
Cooling Degree Days 0    
Month to date cooling degree days 29  
Growing Degree Days 15 (Base 50)    
Moisture  
Dew Point 41 °F    
Average Humidity 45    
Maximum Humidity 72    
Minimum Humidity 20    
Precipitation  
Precipitation 0.00 in - 0.00 in (2019)
Snow  
Snow 0.00 in - - ()
Snow Depth 0.00 in    
Sea Level Pressure  
Sea Level Pressure 30.13 in    
Wind  
Wind Speed 8 mph ()    
Max Wind Speed 16 mph    
Max Gust Speed 22 mph    
Visibility 10.0 miles    
Events Rain    
T = Trace of Precipitation, MM = Missing Value Source: Averaged Metar Reports

Daily Weather History Graph

Daily Weather History Graph

Search for Another Location

Airport or City:

Astronomy

Sep. 16, 2019 Rise Set
Actual Time 6:40 AM MDT 7:05 PM MDT
Civil Twilight 6:13 AM MDT 7:32 PM MDT
Nautical Twilight 5:42 AM MDT 8:03 PM MDT
Astronomical Twilight 5:09 AM MDT 8:36 PM MDT
Moon 8:42 PM MDT (9/16) 8:49 AM MDT (9/16)
Length of Visible Light 13h 18m
Length of Day
12h 24m
Waning Gibbous, 94% of the Moon is Illuminated
Sep 16
Waning Gibbous
Sep 21
Last Quarter
Sep 28
New
Oct 5
First Quarter
Oct 13
Full

Hourly Weather History & Observations

Time (MDT) Temp. Dew Point Humidity Pressure Visibility Wind Dir Wind Speed Gust Speed Precip Events Conditions
12:06 AM 53.6 °F 41.0 °F 62% 30.17 in 10.0 mi South 9.2 mph - N/A   Clear
12:24 AM 53.6 °F 41.0 °F 62% 30.17 in 10.0 mi South 8.1 mph - N/A   Clear
12:47 AM 53.6 °F 41.0 °F 62% 30.17 in 10.0 mi South 9.2 mph - N/A   Clear
1:06 AM 53.6 °F 41.0 °F 62% 30.17 in 10.0 mi South 10.4 mph - N/A   Clear
1:24 AM 51.8 °F 41.0 °F 67% 30.16 in 10.0 mi South 9.2 mph - N/A   Clear
1:42 AM 51.8 °F 41.0 °F 67% 30.17 in 10.0 mi South 9.2 mph - N/A   Clear
2:06 AM 51.8 °F 39.2 °F 62% 30.17 in 10.0 mi South 10.4 mph - N/A   Clear
2:24 AM 53.6 °F 39.2 °F 58% 30.16 in 10.0 mi South 11.5 mph - N/A   Clear
2:42 AM 53.6 °F 39.2 °F 58% 30.16 in 10.0 mi SSW 8.1 mph - N/A   Clear
3:06 AM 59.0 °F 37.4 °F 45% 30.15 in 10.0 mi SW 11.5 mph 17.3 mph N/A   Clear
3:24 AM 59.0 °F 39.2 °F 48% 30.15 in 10.0 mi SW 15.0 mph 21.9 mph N/A   Clear
3:42 AM 59.0 °F 39.2 °F 48% 30.14 in 10.0 mi SW 10.4 mph - N/A   Clear
4:06 AM 59.0 °F 39.2 °F 48% 30.15 in 10.0 mi SW 9.2 mph - N/A   Clear
4:24 AM 59.0 °F 39.2 °F 48% 30.15 in 10.0 mi SW 11.5 mph - N/A   Clear
4:42 AM 59.0 °F 39.2 °F 48% 30.14 in 10.0 mi SW 10.4 mph - N/A   Clear
5:06 AM 60.8 °F 39.2 °F 45% 30.14 in 10.0 mi SW 9.2 mph - N/A   Clear
5:24 AM 59.0 °F 39.2 °F 48% 30.15 in 10.0 mi SW 10.4 mph - N/A   Clear
5:42 AM 59.0 °F 41.0 °F 51% 30.15 in 10.0 mi WSW 9.2 mph - N/A   Clear
6:06 AM 57.2 °F 41.0 °F 55% 30.16 in 10.0 mi SW 9.2 mph - N/A   Clear
6:24 AM 57.2 °F 41.0 °F 55% 30.16 in 10.0 mi SW 10.4 mph - N/A   Clear
6:42 AM 59.0 °F 41.0 °F 51% 30.16 in 10.0 mi SW 9.2 mph 18.4 mph N/A   Clear
7:06 AM 59.0 °F 41.0 °F 51% 30.16 in 10.0 mi SW 11.5 mph - N/A   Clear
7:24 AM 60.8 °F 41.0 °F 48% 30.16 in 10.0 mi SSW 11.5 mph - N/A   Clear
7:47 AM 60.8 °F 41.0 °F 48% 30.16 in 10.0 mi SW 11.5 mph 17.3 mph N/A   Clear
8:06 AM 60.8 °F 41.0 °F 48% 30.16 in 10.0 mi SW 11.5 mph 17.3 mph N/A   Clear
8:24 AM 64.4 °F 41.0 °F 42% 30.16 in 10.0 mi SW 13.8 mph - N/A   Clear
8:42 AM 68.0 °F 42.8 °F 40% 30.16 in 10.0 mi SW 10.4 mph 17.3 mph N/A   Clear
9:06 AM 69.8 °F 41.0 °F 35% 30.17 in 10.0 mi SW 10.4 mph - N/A   Clear
9:24 AM 71.6 °F 41.0 °F 33% 30.17 in 10.0 mi SW 11.5 mph - N/A   Clear
9:42 AM 71.6 °F 39.2 °F 31% 30.17 in 10.0 mi WSW 16.1 mph - N/A   Clear
10:06 AM 69.8 °F 41.0 °F 35% 30.17 in 10.0 mi WSW 15.0 mph - N/A   Clear
10:24 AM 68.0 °F 41.0 °F 37% 30.17 in 10.0 mi WSW 11.5 mph - N/A   Clear
10:42 AM 69.8 °F 42.8 °F 38% 30.17 in 10.0 mi SW 10.4 mph 16.1 mph N/A   Clear
11:24 AM 73.4 °F 32.0 °F 22% 30.16 in 10.0 mi West 3.5 mph - N/A   Clear
11:42 AM 73.4 °F 30.2 °F 20% 30.15 in 10.0 mi Calm Calm - N/A   Clear
12:06 PM 75.2 °F 32.0 °F 21% 30.14 in 10.0 mi NW 5.8 mph - N/A   Clear
12:24 PM 77.0 °F 37.4 °F 24% 30.14 in 10.0 mi WSW 4.6 mph - N/A   Clear
12:42 PM 77.0 °F 37.4 °F 24% 30.13 in 10.0 mi West 3.5 mph - N/A   Scattered Clouds
1:06 PM 78.8 °F 39.2 °F 24% 30.12 in 10.0 mi SW 9.2 mph - N/A   Mostly Cloudy
1:24 PM 75.2 °F 39.2 °F 27% 30.12 in 10.0 mi WSW 6.9 mph - N/A   Scattered Clouds
1:42 PM 78.8 °F 41.0 °F 26% 30.11 in 10.0 mi West 6.9 mph - N/A   Mostly Cloudy
2:06 PM 77.0 °F 39.2 °F 26% 30.11 in 10.0 mi East 5.8 mph - N/A   Mostly Cloudy
2:24 PM 77.0 °F 39.2 °F 26% 30.10 in 10.0 mi SSE 8.1 mph - N/A   Mostly Cloudy
2:48 PM 75.2 °F 37.4 °F 25% 30.10 in 10.0 mi ESE 3.5 mph - N/A   Scattered Clouds
3:06 PM 77.0 °F 39.2 °F 26% 30.09 in 10.0 mi SE 10.4 mph - N/A   Scattered Clouds
3:24 PM 78.8 °F 39.2 °F 24% 30.09 in 10.0 mi ESE 9.2 mph - N/A   Scattered Clouds
3:42 PM 77.0 °F 39.2 °F 26% 30.09 in 10.0 mi NE 6.9 mph - N/A   Scattered Clouds
4:06 PM 73.4 °F 37.4 °F 27% 30.09 in 10.0 mi NE 8.1 mph - N/A   Overcast
4:24 PM 73.4 °F 35.6 °F 25% 30.08 in 10.0 mi NE 8.1 mph - N/A   Overcast
4:42 PM 73.4 °F 37.4 °F 27% 30.08 in 10.0 mi NNE 5.8 mph - N/A   Overcast
5:06 PM 73.4 °F 39.2 °F 29% 30.07 in 10.0 mi SSE 8.1 mph - N/A   Scattered Clouds
5:24 PM 73.4 °F 41.0 °F 31% 30.08 in 10.0 mi SE 9.2 mph - N/A   Scattered Clouds
5:47 PM 71.6 °F 39.2 °F 31% 30.08 in 10.0 mi SSE 8.1 mph - N/A   Mostly Cloudy
6:05 PM 71.6 °F 41.0 °F 33% 30.08 in 10.0 mi SSE 6.9 mph - N/A   Overcast
6:23 PM 71.6 °F 41.0 °F 33% 30.09 in 10.0 mi South 12.7 mph - N/A   Overcast
6:47 PM 64.4 °F 44.6 °F 49% 30.10 in 10.0 mi WSW 11.5 mph - N/A Rain Light Rain
7:06 PM 64.4 °F 44.6 °F 49% 30.11 in 10.0 mi WSW 8.1 mph - N/A   Mostly Cloudy
7:24 PM 64.4 °F 44.6 °F 49% 30.09 in 10.0 mi Calm Calm - N/A   Scattered Clouds
7:42 PM 62.6 °F 44.6 °F 52% 30.09 in 10.0 mi North 5.8 mph - N/A   Scattered Clouds
8:06 PM 60.8 °F 44.6 °F 55% 30.10 in 10.0 mi West 3.5 mph - N/A   Scattered Clouds
8:24 PM 59.0 °F 44.6 °F 59% 30.11 in 10.0 mi Calm Calm - N/A   Clear
8:42 PM 57.2 °F 44.6 °F 63% 30.11 in 10.0 mi Calm Calm - N/A   Clear
9:06 PM 55.4 °F 44.6 °F 67% 30.12 in 10.0 mi West 3.5 mph - N/A   Clear
9:24 PM 53.6 °F 44.6 °F 72% 30.11 in 10.0 mi Calm Calm - N/A   Clear
9:42 PM 51.8 °F 42.8 °F 71% 30.11 in 10.0 mi SSE 3.5 mph - N/A   Clear
10:06 PM 53.6 °F 44.6 °F 72% 30.11 in 10.0 mi WSW 6.9 mph - N/A   Clear
10:24 PM 53.6 °F 44.6 °F 72% 30.11 in 10.0 mi SSW 5.8 mph - N/A   Clear
10:42 PM 53.6 °F 44.6 °F 72% 30.10 in 10.0 mi South 5.8 mph - N/A   Clear
11:06 PM 55.4 °F 44.6 °F 67% 30.09 in 10.0 mi South 6.9 mph - N/A   Clear
11:24 PM 53.6 °F 44.6 °F 72% 30.09 in 10.0 mi South 8.1 mph - N/A   Clear
11:42 PM 53.6 °F 44.6 °F 72% 30.09 in 10.0 mi South 8.1 mph - N/A   Clear